Regional Weather Roundup
Issued by NWS Charleston, SC

Current Version | Previous Version | Text Only | Print | Product List | Glossary On
Versions: 1 2 3 4 5 6 7 8 9 10 11 12 13 14 15 16 17 18 19 20 21 22 23 24 25 26 27 28 29 30 31 32 33 34 35 36 37 38 39 40 41 42 43 44 45 46 47 48 49 50
000 ASUS42 KCHS 222225 RWRCHS REGIONAL WEATHER ROUNDUP NATIONAL WEATHER SERVICE CHARLESTON SC 600 PM EDT TUE JUL 22 2014 NOTE: "FAIR" INDICATES FEW OR NO CLOUDS BELOW 12,000 FEET WITH NO SIGNIFICANT WEATHER AND/OR OBSTRUCTIONS TO VISIBILITY. NOT ALL STATIONS ARE QUALITY CONTROLLED BY THE NATIONAL WEATHER SERVICE. USE DATA WITH CAUTION...ESPECIALLY DEWPOINT OBSERVATIONS. SCZ027-030-031-034>040-042>050-222300- ...SOUTH CAROLINA... CITY SKY/WX TMP DP RH WIND PRES REMARKS N CHARLESTON PTSUNNY 85 72 65 S8 30.05F HX 91 WATERFRONT PRK N/A 82 N/A N/A E9 N/A FORT JOHNSON NOT AVBL MOUNT PLEASANT FAIR 82 75 78 SE5 30.06S JOHNS ISLAND CLEAR 82 66 57 SE7 30.06S PINOPOLIS N/A 86 75 70 NE3 29.98F HX 95 MONCKS CORNER N/A 84 77 79 S6 30.05S HX 94 SUMMERVILLE MOCLDY 84 75 74 SE6 30.06S HX 92 BEAUFORT MCAS PTSUNNY 86 76 71 S10 30.04F HX 96 BEAUFORT ARPT MOCLDY 82 77 83 E6 30.04F HX 91 HILTON HEAD IS SUNNY 84 73 70 SE5 30.06S HX 91 GEORGETOWN NOT AVBL WALTERBORO MOCLDY 82 72 69 N3 30.06F ORANGEBURG PTSUNNY 83 72 69 VRB7 30.06F BARNWELL FAIR 84 75 74 SE10 30.04S HX 92 AIKEN MOCLDY 77 77 100 NE6 30.11S MANNING FAIR 81 N/A N/A MISG 30.06F KINGSTREE NOT AVBL COLUMBIA PTSUNNY 86 72 62 E10 30.05F HX 92 SUMTER MOSUNNY 87 73 64 E9 30.04F HX 94 FLORENCE PTSUNNY 85 73 67 SE6 30.06F HX 91 MYRTLE BEACH MOSUNNY 84 75 74 CALM 30.06F HX 92 N MYRTLE BEACH LGT RAIN 81 77 88 NE3 30.07F $$ GAZ063-065-086>088-099>101-113>116-118-119-134-136>141-150-222300- ...GEORGIA... CITY SKY/WX TMP DP RH WIND PRES REMARKS SAVANNAH ARPT PTSUNNY 87 72 60 E12 30.03F HX 93 HUNTER AAF MOSUNNY 85 74 68 E10 30.02F HX 93 FORT STEWART CLOUDY 82 75 78 W7 30.03S STATESBORO NOT AVBL SYLVANIA PTCLDY 88 77 68 CALM 30.04S HX 100 CLAXTON HVY RAIN 79 77 94 E5 30.06R THOMSON SUNNY 87 77 72 E3 30.10S HX 99 AUGUSTA-BUSH MOSUNNY 86 71 60 E5 30.03F HX 91 AUGUSTA-DANIEL SUNNY 89 70 53 VRB5 30.05F HX 94 SWAINSBORO RAIN 79 79 100 SW3 30.07R VIDALIA N/A 86 73 66 CALM 30.04F HX 93 ALMA MOSUNNY 85 73 67 E3 30.04S HX 91 WAYCROSS LGT RAIN 79 77 94 NE9 30.04R JESUP NOT AVBL BRUNSWICK PTSUNNY 86 72 62 CALM 30.05F HX 92 SAINT SIMONS MOSUNNY 83 74 74 E10 30.05S $$ SCZ027-028-034-036>038-045-046-048>050-GAZ119-141-222300- ...LAKE AND SUPPLEMENTAL COASTAL OBSERVATIONS... STATION/POSITION TIME TEMP WIND PRES WAVE SWELL AIR SEA DIR/SP/G HT/PER HT/PER/DIR (UTC) (F) (DEG/KT/KT) (MB) (FT/S) (FT/S/D) UPR LAKE MARION NOT AVBL WINYAH BAY 2200 82 90/ 5 1018.0S LAKE MURRAY 2200 83 10/ 2/ 4 1017.3S ACE BASIN NERRS 2200 85 150/ 3 1018.0S FORT PULASKI 2200 83 110/ 9/ 11 1017.6F SAPELO ISLAND 2100 88 90/ 9 1018.0S $$ ANZ835-935-AMZ111-154-330-350-352-354-374-450-454-472-222300- ...C-MAN AND BUOY OBSERVATIONS... STATION/POSITION TIME TEMP WIND PRES WAVE SWELL AIR SEA DIR/SP/G HT/PER HT/PER/DIR (UTC) (F) (DEG/KT/KT) (MB) (FT/S) (FT/S/D) FOLLY BEACH CMAN 2200 81 130/ 6/ 8 1018.2F BUOY 41004 2200 79 82 140/ 6/ 8 1017.6R 3/ 8 2/ 8 BUOY 41008 2200 81 85 110/ 10/ 12 1017.3F 2/ 7 2/120/ 7 5E ST. MARYS GA 2200 85 N/A 2/ 7 FRYING PAN BUOY NOT AVBL BUOY 41025 2200 VRB 16/ 17 1019.1F 4/ 7 2/130/ 8 CAPE LOOKOUT NC 2200 79 180/ 15/ 16 1019.0F BUOY 41002 2055 82 83 190/ 12/ 14 1021.4 3/ 8 3/130/ 8 BUOY 41010 2200 81 83 160/ 14/ 16 1018.0F 5/ 6 2/130/ 7 BUOY 41012 NOT AVBL ST AUGUSTINE FL 2200 82 110/ 10/ 11 1018.5R CAPERS NEARSHORE NOT AVBL FRIPP NEARSHORE NOT AVBL $$

USA.gov is the U.S. government's official web portal to all federal, state and local government web resources and services.